EW3517 Weather Reports


Display with metric or nautical units.
time (UTC)temp
F
wind
direction
speed
MPH
gust
MPH
rain 1hr
in
rain 24hr
in
rain mn
in
humidity
%
barometer
mb
20260502231528 76 27 0.0 0.0 0.00 0.00 0.00 33 1015.8
20260502230025 76 11 0.0 0.0 0.00 0.00 0.00 34 1015.9
20260502224524 75 84 0.0 0.0 0.00 0.00 0.00 34 1015.9
20260502223025 76 360 0.0 0.0 0.00 0.00 0.00 34 1016.1
20260502221521 76 5 0.0 0.0 0.00 0.00 0.00 34 1016.1
20260502220021 75 37 0.0 0.0 0.00 0.00 0.00 36 1016.2
20260502214519 76 17 0.0 0.0 0.00 0.00 0.00 34 1016.4
20260502213017 76 294 0.0 0.0 0.00 0.00 0.00 35 1016.5
20260502211529 76 355 0.0 0.0 0.00 0.00 0.00 37 1016.7
20260502210016 75 286 0.0 0.0 0.00 0.00 0.00 36 1017.0
20260502204511 75 308 0.0 0.0 0.00 0.00 0.00 38 1017.1
20260502203011 73 40 0.0 0.0 0.00 0.00 0.00 39 1017.4
20260502201508 74 115 0.0 0.0 0.00 0.00 0.00 39 1017.5
20260502200006 74 34 0.0 0.0 0.00 0.00 0.00 39 1017.7
20260502194501 73 360 0.0 0.0 0.00 0.00 0.00 39 1017.8
20260502193058 72 22 0.0 0.0 0.00 0.00 0.00 42 1017.9
20260502191603 72 57 0.0 0.0 0.00 0.00 0.00 43 1018.1
20260502190058 72 24 0.0 0.0 0.00 0.00 0.00 43 1018.2
20260502184558 72 83 0.0 0.0 0.00 0.00 0.00 43 1018.3
20260502183104 72 33 0.0 0.0 0.00 0.00 0.00 41 1018.5
20260502181550 71 239 0.0 0.0 0.00 0.00 0.00 41 1018.7
20260502163041 67 66 0.0 0.0 0.00 0.00 0.00 50 1019.2
20260502161530 65 5 0.0 0.0 0.00 0.00 0.00 50 1019.3
20260502151519 62 245 0.0 0.0 0.00 0.00 0.00 54 1019.1
20260502123054 52 136 0.0 0.0 0.00 0.00 0.00 70 1018.5
20260502121554 51 150 0.0 0.0 0.00 0.00 0.00 71 1018.2
20260502114605 51 116 0.0 0.0 0.00 0.00 0.00 69 1017.8
20260502113051 52 115 0.0 0.0 0.00 0.00 0.00 68 1018.0
20260502111554 52 115 0.0 0.0 0.00 0.00 0.00 67 1018.1
20260502110050 53 115 0.0 0.0 0.00 0.00 0.00 65 1018.0
20260502104552 54 115 0.0 0.0 0.00 0.00 0.00 64 1017.8
20260502103049 54 31 0.0 0.0 0.00 0.00 0.00 65 1018.4
20260502101616 53 17 0.0 0.0 0.00 0.00 0.00 66 1018.7
20260502071529 53 80 0.0 0.0 0.00 0.00 0.00 63 1017.0
20260502070043 53 80 0.0 0.0 0.00 0.00 0.00 63 1016.9
20260502064523 53 80 0.0 0.0 0.00 0.00 0.00 62 1016.9
20260502063022 53 80 0.0 0.0 0.00 0.00 0.00 63 1017.0
20260502061521 53 80 0.0 0.0 0.00 0.00 0.00 65 1017.0
20260502060019 54 80 0.0 0.0 0.00 0.00 0.00 63 1017.2
20260502054517 54 80 0.0 0.0 0.00 0.00 0.00 63 1017.0
20260502053015 54 80 0.0 0.0 0.00 0.00 0.00 63 1017.0
20260502051512 55 80 0.0 0.0 0.00 0.00 0.00 61 1017.0
20260502050012 55 80 0.0 0.0 0.00 0.00 0.00 60 1017.0
20260502044512 56 80 0.0 0.0 0.00 0.00 0.00 62 1016.9
20260502043008 55 79 0.0 0.0 0.00 0.00 0.00 63 1016.9
20260502041507 56 79 0.0 0.0 0.00 0.00 0.00 61 1017.0
20260502040007 57 79 0.0 0.0 0.00 0.00 0.00 59 1016.9
20260502034512 58 79 0.0 0.0 0.00 0.00 0.00 56 1016.8
20260502033008 58 79 0.0 0.0 0.00 0.00 0.00 56 1016.6
20260502031505 59 79 0.0 0.0 0.00 0.00 0.00 54 1016.7
20260502030005 59 79 0.0 0.0 0.00 0.00 0.00 53 1016.6
20260502024504 60 79 0.0 0.0 0.00 0.00 0.00 52 1016.5
20260502023004 60 79 0.0 0.0 0.00 0.00 0.00 51 1016.3
20260502021503 61 79 0.0 0.0 0.00 0.00 0.00 49 1016.2
20260502020005 62 79 0.0 0.0 0.00 0.00 0.00 47 1016.0
20260502014501 63 79 0.0 0.0 0.00 0.00 0.00 44 1015.7
20260502013003 64 79 0.0 0.0 0.00 0.00 0.00 42 1015.5
20260502011609 65 79 0.0 0.0 0.00 0.00 0.00 40 1015.4
20260502010101 66 79 0.0 0.0 0.00 0.00 0.00 38 1015.3
20260502004624 66 79 0.0 0.0 0.00 0.00 0.00 36 1015.1
20260502003102 67 78 0.0 0.0 0.00 0.00 0.00 35 1015.0
20260502001610 68 45 0.0 0.0 0.00 0.00 0.00 34 1014.9
20260502000104 68 5 0.0 0.0 0.00 0.00 0.00 32 1014.9
20260501234608 68 30 0.0 0.0 0.00 0.00 0.00 31 1014.9
20260501233103 69 355 0.0 0.0 0.00 0.00 0.00 31 1014.9